This is the latest recevied weather packets stored in our database for station/object YM2KDZ. If no packets are shown the sender has not sent any weather packets the latest 1 day(s).
| Time | Temp. | Humidity | Pressure | Rain* | Wind** | Luminosity | Snow |
|---|---|---|---|---|---|---|---|
| 1778018620 | 9.44° C | 96% | 998.6 hPa | 0 mm | 0.45 m/s, 101° | - | - |
| 1778017719 | 9.44° C | 96% | 998.7 hPa | 0 mm | 0.45 m/s, 90° | - | - |
| 1778016819 | 9.44° C | 96% | 998.7 hPa | 0 mm | 0.45 m/s, 90° | - | - |
| 1778015920 | 9.44° C | 95% | 998.7 hPa | 0 mm | 0.89 m/s, 82° | - | - |
| 1778015019 | 10° C | 95% | 998.7 hPa | 0 mm | 0.89 m/s, 74° | - | - |
| 1778014119 | 10° C | 95% | 998.7 hPa | 0 mm | 0.89 m/s, 74° | - | - |
| 1778013219 | 10° C | 94% | 998.7 hPa | 0 mm | 0.89 m/s, 63° | - | - |
| 1778012319 | 10° C | 94% | 998.6 hPa | 0 mm | 0.45 m/s, 59° | - | - |
| 1778011379 | 10° C | 94% | 998.6 hPa | 0 mm | 0.45 m/s, 59° | - | - |
| 1778010479 | 10° C | 94% | 998.6 hPa | 0 mm | 0.45 m/s, 59° | - | - |
| 1778009560 | 10° C | 94% | 998.6 hPa | 0 mm | 0.45 m/s, 68° | - | - |
| 1778008562 | 10° C | 95% | 998.6 hPa | 0 mm | 0.45 m/s, 81° | - | - |
| 1778006902 | 10° C | 95% | 998.6 hPa | 0 mm | 0.89 m/s, 82° | - | - |
| 1778004579 | 9.44° C | 96% | 998.7 hPa | 0 mm | 0.89 m/s, 84° | - | - |
| 1778003671 | 9.44° C | 96% | 998.6 hPa | 0 mm | 0.89 m/s, 84° | - | - |
| 1778002779 | 10° C | 96% | 998.4 hPa | 0 mm | 0.89 m/s, 90° | - | - |
| 1778001879 | 10° C | 95% | 998.3 hPa | 0 mm | 0.89 m/s, 90° | - | - |
| 1778000978 | 10° C | 95% | 998.2 hPa | 0 mm | 0.89 m/s, 96° | - | - |
| 1778000079 | 10° C | 95% | 998.2 hPa | 0 mm | 0.89 m/s, 103° | - | - |
| 1777999179 | 10° C | 94% | 998.3 hPa | 0 mm | 0.89 m/s, 111° | - | - |
| 1777998279 | 10° C | 93% | 998.3 hPa | 0 mm | 0.89 m/s, 117° | - | - |
| 1777997384 | 10.56° C | 93% | 998.3 hPa | 0 mm | 0.45 m/s, 129° | - | - |
| 1777994513 | 10.56° C | 94% | 998.3 hPa | 0 mm | 0.45 m/s, 124° | - | - |
| 1777993513 | 10.56° C | 94% | 998.3 hPa | 0 mm | 0.45 m/s, 124° | - | - |
| 1777992576 | 10.56° C | 94% | 998.3 hPa | 0 mm | 0.45 m/s, 124° | - | - |
* Rain latest hour (hover to see other rain measurements)
** Current wind speed in m/s (hover to see current wind gust speed)